TLM102 VTBS-VTSM

Flight info

Callsign TLM102
Flight time 0h 45m
Altitude 34000
Route KASNI1G KASNI M757 MABKO W33 UPNEP
Aircraft B738/M-SDGIRWY/S

Departure

Time 2026-04-26 09:03
Airport Suvarnabhumi Airport (VTBS)

Arrival

Time 2026-04-26 09:48
Airport Samui International Airport (VTSM)
Time Latitude Longitude Altitude Speed Heading
2026-04-26 08:15 13.69636 100.74728 12 ft 0 kts 105°
2026-04-26 08:16 13.69514 100.74694 12 ft 0 kts 105°
2026-04-26 08:41 13.69514 100.74693 12 ft 2 kts 105°
2026-04-26 08:41 13.69519 100.74674 12 ft 3 kts 105°
2026-04-26 08:41 13.69524 100.74656 12 ft 3 kts 105°
2026-04-26 08:41 13.69529 100.74637 13 ft 3 kts 105°
2026-04-26 08:42 13.69532 100.74618 12 ft 3 kts 83°
2026-04-26 08:42 13.69527 100.74600 13 ft 3 kts 52°
2026-04-26 08:42 13.69513 100.74588 13 ft 3 kts 25°
2026-04-26 08:42 13.69504 100.74583 15 ft 0 kts 25°
2026-04-26 08:43 13.69503 100.74583 15 ft 0 kts 25°
2026-04-26 08:43 13.69502 100.74582 15 ft 0 kts 25°
2026-04-26 08:45 13.69515 100.74587 13 ft 4 kts 14°
2026-04-26 08:46 13.69556 100.74596 12 ft 8 kts 13°
2026-04-26 08:46 13.69618 100.74613 14 ft 11 kts 15°
2026-04-26 08:46 13.69696 100.74634 12 ft 12 kts 15°
2026-04-26 08:46 13.69773 100.74653 12 ft 11 kts
2026-04-26 08:47 13.69829 100.74622 12 ft 9 kts 296°
2026-04-26 08:47 13.69846 100.74565 12 ft 8 kts 284°
2026-04-26 08:47 13.69847 100.74560 12 ft 0 kts 285°
2026-04-26 08:49 13.69852 100.74542 12 ft 8 kts 285°
2026-04-26 08:49 13.69886 100.74496 12 ft 8 kts 337°
2026-04-26 08:49 13.69936 100.74498 14 ft 7 kts 13°
2026-04-26 08:49 13.69986 100.74512 12 ft 8 kts 12°
2026-04-26 08:50 13.70048 100.74526 12 ft 9 kts 14°
2026-04-26 08:50 13.70104 100.74541 12 ft 7 kts 14°
2026-04-26 08:50 13.70121 100.74546 12 ft 0 kts 15°
2026-04-26 08:51 13.70134 100.74549 12 ft 6 kts 14°
2026-04-26 08:51 13.70185 100.74542 12 ft 8 kts 328°
2026-04-26 08:52 13.70208 100.74497 13 ft 7 kts 286°
2026-04-26 08:52 13.70215 100.74470 12 ft 0 kts 285°
2026-04-26 08:53 13.70218 100.74461 12 ft 8 kts 285°
2026-04-26 08:53 13.70228 100.74421 12 ft 0 kts 285°
2026-04-26 08:54 13.70236 100.74390 12 ft 6 kts 285°
2026-04-26 08:54 13.70249 100.74333 13 ft 10 kts 279°
2026-04-26 08:54 13.70224 100.74279 14 ft 8 kts 207°
2026-04-26 08:55 13.70204 100.74272 14 ft 0 kts 192°
2026-04-26 09:02 13.70150 100.74260 14 ft 32 kts 193°
2026-04-26 09:02 13.69686 100.74138 10 ft 104 kts 194°
2026-04-26 09:02 13.68790 100.73902 14 ft 160 kts 195°
2026-04-26 09:03 13.67623 100.73588 420 ft 177 kts 195°
2026-04-26 09:03 13.66439 100.73211 1159 ft 176 kts 197°
2026-04-26 09:03 13.65276 100.72874 1816 ft 181 kts 193°
2026-04-26 09:03 13.63960 100.72556 2068 ft 206 kts 193°
2026-04-26 09:04 13.62472 100.72195 2217 ft 231 kts 192°
2026-04-26 09:04 13.60830 100.71786 2408 ft 255 kts 193°
2026-04-26 09:04 13.59070 100.71335 2996 ft 264 kts 193°
2026-04-26 09:04 13.57282 100.70869 3700 ft 266 kts 193°
2026-04-26 09:05 13.55485 100.70399 4435 ft 267 kts 194°
2026-04-26 09:05 13.53695 100.69929 5180 ft 271 kts 194°
2026-04-26 09:05 13.51849 100.69489 5869 ft 273 kts 188°
2026-04-26 09:05 13.49956 100.69302 6711 ft 274 kts 184°
2026-04-26 09:06 13.48025 100.69193 7318 ft 280 kts 183°
2026-04-26 09:06 13.46056 100.69092 7866 ft 290 kts 183°
2026-04-26 09:06 13.43960 100.68975 8031 ft 314 kts 184°
2026-04-26 09:06 13.41725 100.68839 8402 ft 327 kts 184°
2026-04-26 09:07 13.39430 100.68691 9027 ft 331 kts 184°
2026-04-26 09:07 13.37127 100.68537 9618 ft 332 kts 184°
2026-04-26 09:07 13.34805 100.68378 9835 ft 336 kts 184°
2026-04-26 09:07 13.32488 100.68218 9831 ft 338 kts 184°
2026-04-26 09:08 13.30120 100.68055 10057 ft 344 kts 184°
2026-04-26 09:08 13.27742 100.67907 10841 ft 341 kts 182°
2026-04-26 09:08 13.25359 100.67862 11525 ft 344 kts 180°
2026-04-26 09:08 13.22948 100.67861 12139 ft 349 kts 180°
2026-04-26 09:09 13.20498 100.67865 12789 ft 353 kts 180°
2026-04-26 09:09 13.18031 100.67862 13466 ft 357 kts 180°
2026-04-26 09:09 13.15533 100.67852 14066 ft 361 kts 181°
2026-04-26 09:09 13.13003 100.67836 14673 ft 365 kts 181°
2026-04-26 09:10 13.11314 100.67824 15049 ft 368 kts 181°
2026-04-26 09:10 13.08743 100.67805 15627 ft 371 kts 181°
2026-04-26 09:10 13.06145 100.67771 15826 ft 374 kts 181°
2026-04-26 09:10 13.03539 100.67708 15835 ft 374 kts 182°
2026-04-26 09:11 13.00088 100.67610 15848 ft 375 kts 182°
2026-04-26 09:11 12.98326 100.67558 15856 ft 375 kts 182°
2026-04-26 09:11 12.95737 100.67484 15854 ft 376 kts 182°
2026-04-26 09:11 12.93119 100.67411 15854 ft 377 kts 182°
2026-04-26 09:12 12.90500 100.67340 15850 ft 377 kts 182°
2026-04-26 09:12 12.87872 100.67269 15850 ft 377 kts 182°
2026-04-26 09:12 12.85252 100.67199 15847 ft 376 kts 182°
2026-04-26 09:12 12.82634 100.67130 15845 ft 376 kts 182°
2026-04-26 09:13 12.80023 100.67061 15845 ft 375 kts 182°
2026-04-26 09:13 12.77413 100.66993 15843 ft 375 kts 182°
2026-04-26 09:13 12.74810 100.66925 15847 ft 375 kts 182°
2026-04-26 09:13 12.72202 100.66856 15847 ft 375 kts 182°
2026-04-26 09:14 12.69593 100.66788 15843 ft 375 kts 182°
2026-04-26 09:14 12.66986 100.66719 15847 ft 375 kts 182°
2026-04-26 09:14 12.64370 100.66650 15845 ft 375 kts 182°
2026-04-26 09:14 12.61759 100.66582 15849 ft 376 kts 182°
2026-04-26 09:15 12.59115 100.66512 16184 ft 383 kts 182°
2026-04-26 09:15 12.56464 100.66443 17049 ft 376 kts 182°
2026-04-26 09:15 12.53906 100.66376 18281 ft 360 kts 182°
2026-04-26 09:15 12.51387 100.66310 18787 ft 368 kts 182°
2026-04-26 09:16 12.48760 100.66241 18922 ft 385 kts 182°
2026-04-26 09:16 12.46039 100.66169 19190 ft 396 kts 182°
2026-04-26 09:16 12.43258 100.66096 19645 ft 400 kts 182°
2026-04-26 09:16 12.40528 100.66025 20638 ft 386 kts 181°
2026-04-26 09:17 12.37846 100.65955 21340 ft 386 kts 181°
2026-04-26 09:17 12.35165 100.65884 21788 ft 392 kts 181°
2026-04-26 09:17 12.32422 100.65812 22232 ft 397 kts 181°
2026-04-26 09:17 12.29645 100.65740 22771 ft 399 kts 181°
2026-04-26 09:18 12.26875 100.65667 23442 ft 398 kts 181°
2026-04-26 09:18 12.24098 100.65594 23896 ft 400 kts 181°
2026-04-26 09:18 12.21298 100.65521 24295 ft 404 kts 181°
2026-04-26 09:18 12.18494 100.65448 24905 ft 399 kts 181°
2026-04-26 09:19 12.15729 100.65375 25558 ft 397 kts 181°
2026-04-26 09:19 12.12959 100.65303 25983 ft 400 kts 181°
2026-04-26 09:19 12.10152 100.65230 26386 ft 404 kts 181°
2026-04-26 09:19 12.07340 100.65156 26909 ft 403 kts 181°
2026-04-26 09:20 12.04570 100.65084 27494 ft 401 kts 181°
2026-04-26 09:20 12.01789 100.65013 28046 ft 400 kts 180°
2026-04-26 09:20 11.99002 100.64943 28550 ft 401 kts 180°
2026-04-26 09:20 11.96209 100.64873 29060 ft 401 kts 180°
2026-04-26 09:21 11.93428 100.64804 29596 ft 400 kts 180°
2026-04-26 09:21 11.90643 100.64735 30084 ft 400 kts 180°
2026-04-26 09:21 11.87865 100.64665 30531 ft 399 kts 180°
2026-04-26 09:21 11.85097 100.64596 30985 ft 397 kts 180°
2026-04-26 09:22 11.82336 100.64527 31418 ft 396 kts 181°
2026-04-26 09:22 11.79579 100.64458 31805 ft 397 kts 181°
2026-04-26 09:22 11.76815 100.64389 31811 ft 396 kts 181°
2026-04-26 09:23 11.71327 100.64251 31846 ft 395 kts 180°
2026-04-26 09:23 11.65848 100.64114 31856 ft 397 kts 180°
2026-04-26 09:24 11.60322 100.63976 31854 ft 398 kts 180°
2026-04-26 09:24 11.54785 100.63838 31849 ft 398 kts 180°
2026-04-26 09:25 11.49156 100.63698 31864 ft 414 kts 180°
2026-04-26 09:25 11.43268 100.63552 31863 ft 432 kts 180°
2026-04-26 09:25 11.40234 100.63476 31683 ft 444 kts 180°
2026-04-26 09:26 11.37101 100.63399 31163 ft 454 kts 180°
2026-04-26 09:26 11.33937 100.63319 30581 ft 455 kts 180°
2026-04-26 09:26 11.30771 100.63240 29971 ft 456 kts 180°
2026-04-26 09:26 11.27585 100.63160 29302 ft 457 kts 180°
2026-04-26 09:27 11.24428 100.63080 28864 ft 451 kts 180°
2026-04-26 09:27 11.21301 100.63001 28361 ft 448 kts 180°
2026-04-26 09:27 11.18200 100.62924 27872 ft 444 kts 180°
2026-04-26 09:27 11.15128 100.62813 27374 ft 441 kts 185°
2026-04-26 09:28 11.12131 100.62255 26871 ft 435 kts 195°
2026-04-26 09:28 11.09333 100.61232 26266 ft 430 kts 202°
2026-04-26 09:28 11.06592 100.60038 25635 ft 427 kts 203°
2026-04-26 09:28 11.03881 100.58838 25027 ft 423 kts 203°
2026-04-26 09:29 11.01195 100.57650 24462 ft 420 kts 203°
2026-04-26 09:29 10.98513 100.56472 23989 ft 418 kts 203°
2026-04-26 09:29 10.95818 100.55297 23029 ft 428 kts 203°
2026-04-26 09:29 10.93039 100.54093 22128 ft 434 kts 203°
2026-04-26 09:30 10.90274 100.52900 21586 ft 430 kts 203°
2026-04-26 09:30 10.87532 100.51719 21090 ft 425 kts 203°
2026-04-26 09:30 10.84820 100.50552 20609 ft 420 kts 203°
2026-04-26 09:30 10.82144 100.49401 20139 ft 415 kts 203°
2026-04-26 09:31 10.79497 100.48263 19677 ft 411 kts 203°
2026-04-26 09:31 10.76881 100.47139 19219 ft 406 kts 203°
2026-04-26 09:31 10.74291 100.46025 18754 ft 402 kts 203°
2026-04-26 09:31 10.71722 100.44920 18288 ft 399 kts 203°
2026-04-26 09:32 10.69177 100.43826 17788 ft 395 kts 203°
2026-04-26 09:32 10.66691 100.42758 17318 ft 391 kts 203°
2026-04-26 09:32 10.64195 100.41685 16858 ft 387 kts 203°
2026-04-26 09:32 10.61727 100.40625 16410 ft 383 kts 203°
2026-04-26 09:33 10.59289 100.39578 15967 ft 379 kts 203°
2026-04-26 09:33 10.56874 100.38540 15523 ft 375 kts 203°
2026-04-26 09:33 10.54478 100.37512 15106 ft 372 kts 203°
2026-04-26 09:33 10.52104 100.36492 14680 ft 369 kts 203°
2026-04-26 09:34 10.49749 100.35481 14246 ft 366 kts 203°
2026-04-26 09:34 10.47409 100.34477 13821 ft 364 kts 203°
2026-04-26 09:34 10.45079 100.33477 13354 ft 362 kts 202°
2026-04-26 09:34 10.42766 100.32484 12903 ft 359 kts 202°
2026-04-26 09:35 10.40471 100.31499 12477 ft 356 kts 202°
2026-04-26 09:35 10.38200 100.30525 12056 ft 353 kts 202°
2026-04-26 09:35 10.35943 100.29557 11645 ft 350 kts 202°
2026-04-26 09:35 10.33703 100.28596 11229 ft 348 kts 202°
2026-04-26 09:36 10.31484 100.27645 10829 ft 345 kts 201°
2026-04-26 09:36 10.29276 100.26698 10484 ft 341 kts 201°
2026-04-26 09:36 10.27117 100.25772 10344 ft 331 kts 201°
2026-04-26 09:36 10.25055 100.24888 10197 ft 321 kts 201°
2026-04-26 09:37 10.23039 100.24023 10046 ft 308 kts 201°
2026-04-26 09:37 10.21092 100.23189 9807 ft 302 kts 201°
2026-04-26 09:37 10.19161 100.22362 9490 ft 301 kts 201°
2026-04-26 09:37 10.17240 100.21540 9174 ft 299 kts 201°
2026-04-26 09:38 10.15326 100.20721 8860 ft 296 kts 201°
2026-04-26 09:38 10.13449 100.19917 8548 ft 289 kts 201°
2026-04-26 09:38 10.11605 100.19127 8251 ft 286 kts 201°
2026-04-26 09:38 10.09768 100.18341 7955 ft 285 kts 201°
2026-04-26 09:39 10.07942 100.17559 7656 ft 284 kts 201°
2026-04-26 09:39 10.06125 100.16782 7358 ft 283 kts 200°
2026-04-26 09:39 10.04334 100.16018 7071 ft 282 kts 199°
2026-04-26 09:39 10.02466 100.15473 6827 ft 277 kts 189°
2026-04-26 09:40 10.00576 100.15142 6595 ft 274 kts 187°
2026-04-26 09:40 9.98704 100.14855 6374 ft 270 kts 186°
2026-04-26 09:40 9.96847 100.14569 6141 ft 268 kts 187°
2026-04-26 09:40 9.95004 100.14276 5913 ft 267 kts 187°
2026-04-26 09:41 9.93176 100.13977 5681 ft 265 kts 187°
2026-04-26 09:41 9.91357 100.13674 5463 ft 264 kts 187°
2026-04-26 09:41 9.89551 100.13369 5246 ft 263 kts 187°
2026-04-26 09:41 9.87836 100.13077 5037 ft 261 kts 187°
2026-04-26 09:42 9.86045 100.12771 4824 ft 260 kts 187°
2026-04-26 09:42 9.84266 100.12466 4612 ft 259 kts 187°
2026-04-26 09:42 9.82518 100.12166 4406 ft 258 kts 187°
2026-04-26 09:42 9.80753 100.11862 4172 ft 255 kts 187°
2026-04-26 09:43 9.79018 100.11563 3972 ft 251 kts 187°
2026-04-26 09:43 9.77307 100.11269 3752 ft 248 kts 187°
2026-04-26 09:43 9.75620 100.10979 3559 ft 244 kts 188°
2026-04-26 09:43 9.73966 100.10693 3341 ft 237 kts 188°
2026-04-26 09:44 9.72412 100.10210 3116 ft 231 kts 201°
2026-04-26 09:44 9.70978 100.09533 2901 ft 223 kts 202°
2026-04-26 09:44 9.69622 100.08880 2700 ft 210 kts 202°
2026-04-26 09:44 9.68320 100.08266 2505 ft 203 kts 202°
2026-04-26 09:45 9.67058 100.07677 2320 ft 196 kts 201°
2026-04-26 09:45 9.65828 100.07105 2073 ft 192 kts 202°
2026-04-26 09:45 9.64649 100.06560 1835 ft 181 kts 201°
2026-04-26 09:45 9.63546 100.06050 1636 ft 166 kts 200°
2026-04-26 09:46 9.62508 100.05594 1432 ft 154 kts 193°
2026-04-26 09:46 9.61512 100.05603 1236 ft 139 kts 168°
2026-04-26 09:46 9.60540 100.05703 1085 ft 143 kts 171°
2026-04-26 09:46 9.59556 100.05786 1030 ft 141 kts 173°
2026-04-26 09:47 9.58595 100.05869 1002 ft 138 kts 173°
2026-04-26 09:47 9.57620 100.05949 790 ft 148 kts 171°
2026-04-26 09:47 9.56582 100.06087 475 ft 153 kts 173°
2026-04-26 09:47 9.55550 100.06170 91 ft 144 kts 172°
2026-04-26 09:48 9.54770 100.06252 57 ft 62 kts 175°
2026-04-26 09:48 9.54618 100.06267 60 ft 8 kts 178°
2026-04-26 09:48 9.54575 100.06261 59 ft 3 kts 143°
2026-04-26 09:48 9.54580 100.06278 61 ft 3 kts 37°
2026-04-26 09:49 9.54606 100.06272 54 ft 9 kts 342°
2026-04-26 09:49 9.54723 100.06254 55 ft 20 kts 354°
2026-04-26 09:49 9.54863 100.06241 62 ft 20 kts 354°
2026-04-26 09:49 9.54970 100.06231 60 ft 7 kts 356°
2026-04-26 09:50 9.55007 100.06252 59 ft 6 kts 62°
2026-04-26 09:50 9.55012 100.06285 62 ft 3 kts 75°
2026-04-26 09:50 9.55033 100.06305 62 ft 6 kts 19°
2026-04-26 09:50 9.55047 100.06329 63 ft 2 kts 110°
2026-04-26 09:51 9.55042 100.06340 64 ft 1 kts 100°
2026-04-26 09:51 9.55042 100.06346 65 ft 0 kts 90°
2026-04-26 09:51 9.55042 100.06347 66 ft 0 kts 88°